Date,TemperatureHighF,TemperatureAvgF,TemperatureLowF,DewpointHighF,DewpointAvgF,DewpointLowF,HumidityHigh,HumidityAvg,HumidityLow,PressureMaxIn,PressureMinIn,WindSpeedMaxMPH,WindSpeedAvgMPH,GustSpeedMaxMPH,PrecipitationSumIn
2013-1-1,53.4,41.1,31.8,27.8,22.9,18.5,69,49,37,30.24,30.12,7,3,7,0.00
2013-1-2,59.0,42.6,31.5,31.4,22.4,14.7,61,45,35,30.18,30.09,8,5,8,0.00
2013-1-3,54.7,38.8,24.4,39.1,22.8,11.0,57,52,41,30.18,30.12,0,0,0,0.00
2013-1-4,55.4,37.7,27.0,39.8,21.4,13.4,56,52,41,30.24,30.18,0,0,0,0.00
2013-1-5,58.5,46.7,33.6,42.7,28.2,0.0,56,50,56,30.27,30.12,0,0,0,0.00
2013-1-6,56.8,50.6,45.1,0.0,0.0,0.0,0,0,100,30.12,30.06,0,0,0,0.00
2013-1-7,55.9,47.7,39.4,0.0,0.0,0.0,0,0,100,30.21,30.09,0,0,0,0.00
2013-1-8,58.6,48.1,40.6,0.0,0.0,0.0,0,0,100,30.18,30.09,0,0,0,0.00
2013-1-9,60.1,49.1,40.3,0.0,0.0,0.0,0,0,100,30.12,29.97,0,0,0,0.00
2013-1-10,53.8,43.8,36.0,0.0,0.0,0.0,0,0,100,30.15,30.00,0,0,0,0.00
2013-1-11,52.0,40.7,32.0,0.0,0.0,0.0,0,0,100,30.21,30.09,0,0,0,0.00
2013-1-12,50.9,40.5,32.0,0.0,0.0,0.0,0,0,100,30.21,30.09,0,0,0,0.00
2013-1-13,50.0,34.6,23.7,0.0,0.0,0.0,0,0,100,30.21,30.09,0,0,0,0.00
2013-1-14,48.9,33.9,21.9,0.0,0.0,0.0,0,0,100,30.33,30.15,0,0,0,0.94
2013-1-15,52.7,36.8,24.8,0.0,0.0,0.0,0,0,100,30.42,30.30,0,0,0,0.00
2013-1-16,58.8,43.3,25.7,0.0,0.0,0.0,0,0,100,30.36,30.21,0,0,0,0.00
2013-1-17,61.9,40.3,27.1,0.0,0.0,0.0,0,0,100,30.21,30.09,0,0,0,0.00
2013-1-18,64.9,41.7,27.7,0.0,0.0,0.0,0,0,100,30.21,30.06,0,0,0,0.00
2013-1-19,65.5,40.9,27.0,0.0,0.0,0.0,0,0,100,30.24,30.09,3,0,3,0.00
2013-1-20,64.6,41.6,26.6,0.0,0.0,0.0,0,0,100,30.21,30.06,5,1,5,0.00
2013-1-21,63.5,41.5,25.9,0.0,0.0,0.0,0,0,100,30.15,30.03,4,0,4,0.00
2013-1-22,67.3,43.8,27.3,0.0,0.0,0.0,0,0,100,30.12,30.00,0,0,0,0.00
2013-1-23,61.2,49.9,40.6,0.0,0.0,0.0,0,0,100,30.06,30.00,5,0,5,0.00
2013-1-24,63.0,53.9,49.1,0.0,0.0,0.0,0,0,100,30.15,30.03,0,0,0,0.43
2013-1-25,65.8,57.0,51.1,0.0,0.0,0.0,0,0,100,30.15,30.00,4,0,4,0.12
2013-1-26,66.2,54.5,46.9,0.0,0.0,0.0,0,0,100,30.03,29.94,10,2,10,0.00
2013-1-27,55.9,43.9,33.3,0.0,0.0,0.0,0,0,100,30.12,30.03,15,3,15,0.00
2013-1-28,56.1,41.9,29.1,0.0,0.0,0.0,0,0,100,30.24,30.09,8,0,8,0.00
2013-1-29,57.9,47.0,34.0,0.0,0.0,0.0,0,0,100,30.27,30.18,4,0,4,0.00
2013-1-30,62.4,48.8,34.0,0.0,0.0,0.0,0,0,100,30.33,30.21,0,0,0,0.00
2013-1-31,64.6,45.0,32.0,0.0,0.0,0.0,0,0,100,30.24,30.12,0,0,0,0.00
2013-2-1,65.8,47.2,32.2,0.0,0.0,0.0,0,0,100,30.21,30.09,4,0,4,0.00
2013-2-2,65.7,51.9,41.5,0.0,0.0,0.0,0,0,100,30.24,30.15,4,1,4,0.00
2013-2-3,60.1,47.9,37.6,0.0,0.0,0.0,0,0,100,30.21,30.06,4,0,4,0.00
2013-2-4,65.7,49.6,39.7,0.0,0.0,0.0,0,0,100,30.15,30.00,6,3,6,0.00
2013-2-5,63.3,46.4,34.9,0.0,0.0,0.0,0,0,100,30.09,30.00,8,1,8,0.00
2013-2-6,59.9,47.2,38.5,0.0,0.0,0.0,0,0,100,30.15,30.06,5,1,5,0.00
2013-2-7,62.2,47.1,36.7,0.0,0.0,0.0,0,0,100,30.15,29.97,10,1,10,0.00
2013-2-8,55.9,41.6,31.5,0.0,0.0,0.0,0,0,100,30.00,29.88,4,1,4,0.16
2013-2-9,54.1,37.0,27.1,0.0,0.0,0.0,0,0,100,30.12,29.94,6,1,6,0.00
2013-2-10,55.9,37.5,27.5,0.0,0.0,0.0,0,0,100,30.12,29.97,8,1,8,0.00
2013-2-11,57.4,39.6,27.3,0.0,0.0,0.0,0,0,100,30.21,30.03,5,1,5,0.00
2013-2-12,59.2,41.9,29.1,0.0,0.0,0.0,0,0,100,30.33,30.21,4,1,4,0.00
2013-2-13,62.2,45.0,31.1,0.0,0.0,0.0,0,0,100,30.30,30.15,6,0,6,0.00
2013-2-14,68.0,46.1,30.7,0.0,0.0,0.0,0,0,100,30.21,30.06,6,0,6,0.00
2013-2-15,71.8,48.8,0.0,0.0,0.0,0.0,0,0,100,30.24,30.15,13,1,13,0.00
2013-2-16,72.9,50.6,36.7,0.0,0.0,0.0,0,0,100,30.21,30.03,4,0,4,0.00
2013-2-17,64.6,46.2,32.4,0.0,0.0,0.0,0,0,100,30.03,29.94,0,0,0,0.00
2013-2-18,58.8,46.5,32.2,0.0,0.0,0.0,0,0,100,30.03,29.94,0,0,0,0.00
2013-2-19,61.5,46.9,0.0,34.6,3.6,0.0,95,10,94,29.97,29.74,3,0,3,0.39
2013-2-20,57.4,41.5,27.1,40.7,33.6,26.1,97,77,37,30.10,29.83,15,2,16,0.00
2013-2-21,56.7,43.1,30.1,43.6,35.8,28.3,96,77,49,30.19,30.07,12,2,13,0.00
2013-2-22,62.5,43.6,27.1,43.1,34.1,25.9,96,73,38,30.27,30.18,12,2,12,0.00
2013-2-23,61.6,45.9,31.7,45.4,36.7,29.9,95,73,32,30.26,30.06,15,3,16,0.00
2013-2-24,61.2,43.7,30.3,37.0,30.9,25.8,94,66,27,30.29,30.14,16,2,17,0.00
2013-2-25,66.7,44.6,26.6,42.9,32.2,24.4,93,67,26,30.30,30.13,12,2,12,0.00
2013-2-26,67.8,48.9,35.3,43.1,32.2,19.3,95,60,20,30.21,30.08,13,3,17,0.00
2013-2-27,72.0,46.7,27.1,40.5,30.2,23.8,89,58,18,30.38,30.21,10,2,11,0.00
2013-2-28,71.5,51.2,31.5,44.9,35.4,28.5,89,60,28,30.45,30.33,14,2,14,0.00
2013-3-1,77.9,59.6,40.8,48.6,42.0,36.2,86,57,27,30.42,30.20,15,2,16,0.00
2013-3-2,74.7,49.8,37.0,47.3,38.8,32.0,95,72,23,30.25,30.09,13,2,14,0.00
2013-3-3,67.0,54.2,42.2,49.0,42.0,37.4,87,64,44,30.13,29.99,17,2,17,0.00
2013-3-4,69.7,49.9,40.6,51.7,44.2,37.5,95,82,47,30.15,30.00,13,2,14,0.00
2013-3-5,56.8,46.8,38.6,48.0,42.2,37.1,97,85,63,30.10,30.01,20,4,22,0.00
2013-3-6,57.2,48.1,42.1,50.1,44.5,40.3,96,88,72,30.12,30.01,17,5,20,0.24
2013-3-7,54.4,46.6,40.9,47.8,42.1,38.0,96,85,61,30.02,29.84,20,4,23,0.22
2013-3-8,51.2,45.1,40.6,46.7,42.3,37.5,96,90,80,30.11,29.80,15,2,17,0.04
2013-3-9,60.9,45.0,31.4,47.1,39.1,30.2,97,81,53,30.32,30.10,11,2,14,0.00
2013-3-10,70.0,47.8,31.8,47.8,36.6,30.5,97,73,25,30.38,30.22,11,2,11,0.00
2013-3-11,75.2,53.4,32.8,47.2,38.3,31.3,96,63,23,30.27,30.08,12,2,12,0.00
2013-3-12,80.5,56.1,35.7,53.3,42.9,34.1,96,67,24,30.15,30.02,12,2,13,0.00
2013-3-13,85.3,59.3,39.5,56.3,44.3,31.8,96,66,15,30.17,30.04,12,2,12,0.00
2013-3-14,80.2,58.6,40.0,54.3,42.3,34.5,92,60,22,30.13,30.04,15,2,15,0.00
2013-3-15,82.3,62.9,46.0,54.8,45.1,30.1,88,57,17,30.09,29.96,14,3,16,0.00
2013-3-16,78.1,58.6,41.0,52.8,44.2,36.8,96,64,28,30.06,29.95,14,3,15,0.00
2013-3-17,75.4,56.4,39.8,47.9,40.5,34.3,91,59,23,30.10,29.98,14,2,14,0.00
2013-3-18,73.1,53.3,35.0,47.0,39.5,32.8,94,64,28,30.12,30.00,22,2,23,0.00
2013-3-19,77.5,57.6,41.3,47.7,41.8,36.3,90,59,28,30.15,30.04,21,3,21,0.00
2013-3-20,68.0,55.2,46.3,52.0,43.0,37.6,85,65,39,30.13,30.06,18,2,18,0.00
2013-3-21,71.2,56.2,43.6,53.3,45.9,38.6,94,71,41,30.08,29.91,16,4,16,0.00
2013-3-22,73.5,54.5,38.8,40.8,32.3,18.9,92,51,13,30.05,29.93,18,3,18,0.00
2013-3-23,73.1,54.1,35.8,33.9,28.6,22.8,75,43,17,30.11,29.99,16,2,17,0.00
2013-3-24,78.3,54.4,32.8,43.6,34.8,29.6,89,54,18,30.10,29.93,14,2,16,0.00
2013-3-25,76.7,54.1,35.7,48.0,38.5,32.3,91,60,21,30.02,29.90,18,2,18,0.00
2013-3-26,75.7,52.4,35.3,49.7,39.4,26.8,96,67,19,30.01,29.90,13,2,14,0.00
2013-3-27,71.7,53.1,40.4,52.1,45.2,38.3,94,77,48,30.06,29.96,17,3,18,0.00
2013-3-28,69.3,52.9,40.0,54.9,46.7,38.6,98,81,49,30.09,30.03,19,2,20,0.00
2013-3-29,74.8,55.6,40.9,55.6,47.8,39.6,97,78,44,30.11,30.03,19,2,19,0.00
2013-3-30,69.1,57.5,46.0,53.9,49.4,41.3,97,77,38,30.09,30.02,20,5,22,0.02
2013-3-31,67.2,57.7,49.7,54.4,51.1,47.8,97,80,53,30.10,30.03,22,4,22,0.03
2013-4-1,62.5,54.6,44.2,55.3,50.2,42.3,95,86,67,30.16,30.08,17,4,19,0.04
2013-4-2,75.8,56.4,43.0,53.7,47.5,41.4,97,76,35,30.19,30.03,13,2,14,0.00
2013-4-3,82.0,58.8,41.7,54.9,47.0,40.4,97,70,29,30.12,29.98,25,3,27,0.00
2013-4-4,72.8,57.0,46.5,56.3,50.4,43.6,93,80,53,30.13,30.03,26,3,26,0.00
2013-4-5,69.2,56.4,46.1,55.9,49.4,44.4,97,79,52,30.17,30.06,14,3,17,0.00
2013-4-6,71.7,55.0,41.8,52.7,47.2,40.5,97,78,36,30.20,30.07,23,3,23,0.00
2013-4-7,75.5,57.1,43.9,53.0,47.6,42.3,97,74,37,30.15,29.89,24,4,29,0.00
2013-4-8,65.8,54.1,40.5,47.0,37.3,28.3,93,58,28,29.94,29.80,26,7,27,0.00
2013-4-9,73.1,55.7,34.7,40.9,35.2,28.6,92,51,20,30.07,29.94,15,3,16,0.00
2013-4-10,81.6,59.1,36.5,41.0,35.6,30.5,88,48,17,30.17,30.02,19,3,19,0.00
2013-4-11,76.2,59.5,41.7,51.0,44.4,39.1,92,61,36,30.05,29.78,19,3,19,0.00
2013-4-12,84.4,59.6,41.0,49.9,43.0,37.6,95,61,23,29.91,29.76,19,3,19,0.00
2013-4-13,79.6,57.9,40.4,52.3,44.3,37.9,92,65,32,29.90,29.77,15,2,15,0.00
2013-4-14,77.7,56.6,37.7,48.0,40.8,35.4,95,61,31,29.90,29.77,18,3,18,0.00
2013-4-15,62.4,50.7,39.3,47.4,39.8,27.7,92,68,44,29.96,29.84,19,4,19,0.00
2013-4-16,68.0,49.6,29.4,38.2,28.3,1.5,92,52,8,30.10,29.96,23,5,24,0.00
2013-4-17,72.0,53.4,30.3,36.1,27.9,19.6,90,45,14,30.22,30.10,18,3,18,0.00
2013-4-18,75.4,55.1,32.8,36.5,29.7,16.3,87,45,11,30.27,30.17,24,3,24,0.00
2013-4-19,84.5,60.5,34.0,41.7,34.9,27.3,89,46,14,30.26,30.02,16,3,16,0.00
2013-4-20,87.3,64.0,43.2,48.0,42.4,37.6,87,51,18,30.07,29.91,21,3,21,0.00
2013-4-21,89.5,63.8,40.5,45.9,41.3,29.8,92,52,12,30.01,29.90,20,3,20,0.00
2013-4-22,86.0,63.3,42.5,47.5,43.1,38.1,90,54,20,29.97,29.82,21,3,21,0.00
2013-4-23,82.7,59.4,41.5,51.5,45.6,39.4,94,66,26,29.93,29.83,16,2,17,0.00
2013-4-24,65.5,52.1,40.3,52.4,46.9,38.8,97,83,62,29.98,29.86,21,4,22,0.00
2013-4-25,71.8,61.2,46.6,51.8,47.3,42.4,86,62,47,30.13,30.04,19,5,19,0.00
2013-4-26,85.0,60.3,40.3,52.2,42.7,31.9,95,60,16,30.19,30.09,20,3,21,0.00
2013-4-27,91.1,65.1,41.4,50.8,43.7,37.9,90,52,20,30.20,30.01,17,3,17,0.00
2013-4-28,93.8,67.9,44.7,50.0,41.7,24.6,88,47,10,30.05,29.83,18,2,18,0.00
2013-4-29,92.0,67.6,45.9,49.2,43.7,36.8,84,48,15,29.89,29.72,27,4,27,0.00
2013-4-30,79.0,60.8,47.2,53.6,47.9,42.6,88,65,34,29.86,29.75,21,3,21,0.00
2013-5-1,80.3,61.1,41.5,51.8,46.8,39.9,97,65,29,30.09,29.86,14,2,14,0.00
2013-5-2,94.3,65.5,41.8,49.5,40.8,22.5,95,51,8,30.15,30.05,16,2,16,0.00
2013-5-3,92.5,68.7,44.3,44.3,35.3,22.5,81,38,10,30.09,29.78,29,4,29,0.00
2013-5-4,80.3,60.6,44.7,50.6,41.5,33.1,93,54,21,29.80,29.66,24,5,24,0.00
2013-5-5,63.8,56.0,50.9,51.1,49.5,47.7,94,79,60,29.85,29.71,35,9,38,0.00
2013-5-6,62.2,56.7,53.2,54.3,50.5,47.4,94,80,65,29.99,29.84,21,5,21,0.20
2013-5-7,72.0,58.6,49.7,52.0,48.5,44.3,90,71,41,30.06,29.96,28,4,29,0.00
2013-5-8,73.3,57.6,43.6,52.6,45.9,41.9,96,68,40,30.11,30.05,23,3,24,0.00
2013-5-9,78.2,60.2,43.2,50.8,45.2,40.3,95,62,28,30.13,30.03,26,3,26,0.00
2013-5-10,87.7,66.4,45.6,55.4,49.8,43.4,95,60,29,30.16,30.02,17,3,17,0.00
2013-5-11,97.0,72.3,50.6,57.6,51.5,45.6,93,54,23,30.11,29.97,26,3,27,0.00
2013-5-12,99.3,74.9,52.6,54.5,46.9,33.6,83,43,15,30.11,29.93,23,3,23,0.00
2013-5-13,96.8,70.8,51.6,50.1,43.3,21.3,81,45,9,30.04,29.90,19,2,19,0.00
2013-5-14,76.0,57.0,43.6,53.3,47.2,39.6,94,73,29,30.04,29.94,21,3,22,0.00
2013-5-15,80.8,59.8,41.8,48.9,44.1,39.0,96,62,27,30.08,29.95,16,2,16,0.00
2013-5-16,75.2,59.6,42.5,50.2,46.1,39.9,93,64,36,30.02,29.90,21,5,21,0.00
2013-5-17,75.8,61.3,47.2,48.0,44.9,40.6,89,58,33,30.05,29.95,24,5,25,0.00
2013-5-18,82.7,62.1,41.0,44.9,38.9,22.5,91,50,12,30.12,30.01,18,4,18,0.00
2013-5-19,85.8,66.6,46.9,48.6,43.6,39.1,88,49,22,30.08,29.90,19,4,19,0.00
2013-5-20,92.5,69.8,44.7,44.5,39.3,31.5,81,39,13,29.99,29.86,21,3,21,0.00
2013-5-21,87.8,66.4,49.3,46.1,39.0,31.4,66,40,20,29.94,29.82,24,4,24,0.00
2013-5-22,73.8,57.1,41.9,41.1,35.7,27.4,84,50,20,29.94,29.82,22,5,23,0.00
2013-5-23,68.8,54.1,39.8,41.7,36.4,30.6,83,54,31,29.99,29.91,19,4,19,0.00
2013-5-24,74.8,56.3,37.3,41.8,36.7,29.0,88,53,24,30.02,29.93,21,4,21,0.00
2013-5-25,75.8,55.0,36.0,44.6,39.1,31.8,88,59,24,30.05,29.98,18,3,18,0.00
2013-5-26,78.8,58.1,39.3,49.2,44.7,36.9,94,66,27,30.10,30.01,22,4,22,0.00
2013-5-27,79.5,63.4,50.2,50.1,46.5,39.4,89,59,26,30.10,29.95,19,5,19,0.00
2013-5-28,80.3,66.0,49.7,55.8,50.5,46.6,91,61,32,30.01,29.81,21,4,21,0.00
2013-5-29,82.5,65.7,48.5,54.6,48.5,41.6,88,56,33,29.93,29.79,20,4,20,0.00
2013-5-30,87.9,67.0,46.6,46.4,40.0,26.1,86,45,13,29.94,29.83,19,4,19,0.00
2013-5-31,95.2,71.7,46.5,42.9,37.3,29.1,71,35,10,29.97,29.82,17,3,17,0.00
2013-6-1,99.1,77.1,51.5,45.6,40.7,34.9,67,32,12,29.89,29.69,15,4,15,0.00
2013-6-2,86.3,67.3,53.9,55.7,49.8,41.3,90,56,33,29.77,29.68,20,5,20,0.00
2013-6-3,70.1,60.3,52.4,55.3,52.6,48.3,91,77,57,29.87,29.75,22,6,22,0.00
2013-6-4,72.7,59.7,48.5,55.9,51.5,46.4,94,76,53,29.96,29.86,17,4,17,0.00
2013-6-5,77.3,60.9,47.0,55.4,50.4,44.9,95,71,46,29.99,29.90,19,3,19,0.00
2013-6-6,84.0,63.5,46.8,55.6,49.8,44.4,93,65,36,29.95,29.83,14,2,14,0.00
2013-6-7,96.8,70.5,48.7,56.8,51.8,45.1,89,57,26,29.90,29.71,14,2,17,0.00
2013-6-8,85.3,67.7,53.5,57.7,53.7,49.1,90,64,37,29.84,29.71,20,3,20,0.00
2013-6-9,54.9,54.0,53.1,52.0,51.2,50.1,92,90,89,29.85,29.83,4,1,4,0.00
2013-6-10,75.6,62.6,55.5,54.5,52.7,50.1,86,71,45,29.95,29.87,20,8,20,0.00
2013-6-11,91.7,67.6,50.1,57.1,52.0,47.3,93,62,26,29.96,29.85,15,2,15,0.00
2013-6-12,84.5,65.2,46.8,53.9,47.8,39.1,91,58,27,29.99,29.90,17,3,20,0.00
2013-6-13,91.2,66.0,40.4,45.5,38.1,10.5,90,46,6,30.06,29.91,17,3,18,0.00
2013-6-14,89.2,65.1,44.0,44.9,37.8,22.1,80,44,10,29.95,29.81,23,4,23,0.00
2013-6-15,77.8,61.7,45.6,51.1,42.9,33.6,80,52,35,29.99,29.83,19,3,19,0.00
2013-6-16,91.8,68.3,41.6,47.3,40.4,29.3,89,46,12,30.06,29.94,19,4,19,0.00
2013-6-17,89.3,71.1,51.7,49.8,43.9,34.5,75,43,15,30.05,29.91,21,4,21,0.00
2013-6-18,81.2,63.9,47.8,52.5,47.2,42.8,91,59,26,30.00,29.87,19,4,19,0.00
2013-6-19,81.8,62.7,51.1,45.1,42.3,35.3,76,51,21,30.00,29.88,18,5,18,0.00
2013-6-20,85.4,62.6,47.3,44.0,41.2,33.6,78,50,16,29.95,29.87,16,4,16,0.00
2013-6-21,88.2,68.3,45.8,46.0,40.3,33.9,77,42,15,29.95,29.83,20,4,22,0.00
2013-6-22,90.8,72.6,47.5,42.4,37.9,34.5,71,32,15,29.91,29.77,23,6,23,0.00
2013-6-23,79.3,64.8,50.4,53.9,47.8,37.9,86,56,38,29.85,29.78,19,3,19,0.00
2013-6-24,73.8,61.5,53.1,59.9,55.1,49.4,90,80,59,29.93,29.81,15,3,16,0.00
2013-6-25,83.2,69.6,52.4,58.0,55.3,50.7,95,64,39,29.98,29.91,18,4,21,0.00
2013-6-26,62.9,60.5,57.7,60.0,56.3,52.9,92,86,76,30.01,29.94,7,1,7,0.00
2013-6-27,99.8,79.1,62.6,62.5,58.4,55.1,81,53,24,30.02,29.93,20,4,23,0.00
2013-6-28,102.3,83.2,62.5,58.8,54.7,47.1,77,42,19,29.98,29.82,21,4,22,0.00
2013-6-29,106.2,91.8,70.6,53.0,44.5,36.1,52,22,11,29.88,29.72,22,5,24,0.00
2013-6-30,102.8,79.2,64.2,47.3,44.8,41.3,52,32,13,29.79,29.66,15,3,15,0.00
2013-7-1,102.5,80.9,63.5,59.1,53.9,46.9,66,43,19,29.85,29.75,19,4,20,0.00
2013-7-2,100.0,78.0,61.7,58.4,54.7,47.9,74,49,19,29.91,29.83,17,3,17,0.00
2013-7-3,104.2,79.8,58.9,54.3,50.8,45.3,73,43,16,29.89,29.72,16,2,16,0.00
2013-7-4,99.3,82.2,67.0,55.3,52.7,48.6,61,38,23,29.75,29.68,24,4,24,0.00
2013-7-5,85.0,68.4,55.7,57.0,53.0,49.6,82,60,38,29.78,29.73,20,3,20,0.00
2013-7-6,83.7,64.5,49.0,57.1,51.4,45.6,91,66,35,29.81,29.73,19,3,21,0.00
2013-7-7,92.6,67.1,45.4,55.1,45.4,22.6,93,54,9,29.85,29.77,19,3,19,0.00
2013-7-8,96.8,70.7,44.4,48.1,36.8,8.7,82,39,5,29.95,29.85,15,2,18,0.00
2013-7-9,106.7,76.1,50.8,46.0,37.3,25.8,50,28,9,30.00,29.89,17,3,17,0.00
2013-7-10,96.3,73.2,54.5,50.1,40.6,27.9,57,35,10,29.95,29.86,19,5,19,0.00
2013-7-11,86.3,73.4,57.9,56.9,50.9,41.4,83,48,25,29.90,29.85,19,4,22,0.00
2013-7-12,78.5,57.2,48.0,57.2,50.3,46.0,96,80,48,29.92,29.84,7,0,10,0.00
2013-7-13,91.7,70.0,46.5,51.9,36.7,14.1,90,42,8,29.95,29.87,16,3,16,0.00
2013-7-14,94.8,71.0,49.5,39.8,32.7,19.3,47,27,7,29.97,29.86,16,3,16,0.00
2013-7-15,85.3,63.6,46.1,49.7,41.4,20.3,84,51,10,29.90,29.81,16,3,16,0.00
2013-7-16,81.8,61.7,43.7,52.4,46.4,41.0,92,63,31,30.01,29.88,17,3,18,0.00
2013-7-17,89.8,65.7,44.9,53.7,47.8,40.4,91,58,25,30.07,29.96,17,3,17,0.00
2013-7-18,96.6,72.1,49.3,53.1,42.7,30.0,82,43,13,30.04,29.86,20,3,20,0.00
2013-7-19,97.3,72.1,50.7,48.0,38.8,26.6,59,34,11,29.93,29.77,24,3,24,0.00
2013-7-20,86.4,69.7,52.3,53.0,48.0,39.6,69,48,29,29.84,29.73,18,3,19,0.00
2013-7-21,90.3,72.3,57.3,59.9,54.7,48.8,77,56,33,29.88,29.76,14,3,19,0.00
2013-7-22,88.8,73.2,62.9,62.5,57.5,51.5,87,61,29,29.94,29.81,19,3,19,0.01
2013-7-23,93.2,74.0,62.0,57.2,54.1,50.0,74,53,27,29.97,29.88,17,3,17,0.00
2013-7-24,79.2,59.7,54.4,51.2,46.8,42.4,69,63,37,29.95,29.85,15,1,20,0.00
2013-7-25,96.2,78.9,58.8,55.9,52.6,49.5,74,43,24,30.00,29.90,20,4,20,0.00
2013-7-26,95.5,72.4,54.6,53.5,50.2,44.5,81,51,19,30.05,29.95,18,3,19,0.00
2013-7-27,90.0,70.4,53.1,53.0,49.2,46.1,81,51,23,30.00,29.83,17,3,17,0.00
2013-7-28,83.7,67.2,51.8,55.7,51.4,45.3,83,60,33,29.86,29.80,19,4,22,0.00
2013-7-29,82.3,64.9,51.9,56.2,51.9,47.4,93,67,31,30.01,29.85,16,4,17,0.00
2013-7-30,61.6,51.0,48.6,50.8,47.6,45.6,92,88,64,30.05,30.01,4,0,5,0.00
2013-7-31,82.5,67.7,46.7,52.6,46.8,41.3,86,51,27,30.08,29.97,16,4,16,0.00
2013-8-1,91.0,68.3,48.1,49.5,41.8,29.0,87,46,12,30.05,29.89,20,3,22,0.00
2013-8-2,89.1,67.2,47.3,50.0,42.8,31.0,80,47,16,29.97,29.86,19,3,19,0.00
2013-8-3,86.5,63.2,43.1,53.4,44.2,34.2,81,56,18,29.98,29.89,15,2,15,0.00
2013-8-4,86.7,62.6,41.8,53.1,45.5,37.5,91,60,19,30.01,29.92,14,2,15,0.00
2013-8-5,89.8,64.2,45.1,51.9,44.9,39.6,94,56,22,30.01,29.90,23,3,23,0.00
2013-8-6,79.9,61.3,46.7,52.9,47.2,41.2,88,63,28,30.06,29.95,17,3,17,0.00
2013-8-7,79.3,62.5,48.3,55.4,50.4,44.6,95,69,39,30.11,29.99,20,3,20,0.00
2013-8-8,79.8,60.9,45.0,54.0,48.2,38.1,95,68,23,30.03,29.91,19,3,19,0.00
2013-8-9,82.5,62.4,47.2,54.9,49.6,44.6,93,67,34,29.98,29.89,20,3,20,0.00
2013-8-10,86.9,65.4,47.2,55.5,50.0,44.1,92,62,27,30.03,29.94,24,4,24,0.00
2013-8-11,89.7,68.0,49.8,55.5,49.0,44.3,89,56,27,30.01,29.87,25,4,26,0.00
2013-8-12,92.6,69.3,50.5,53.3,46.2,41.1,78,48,20,29.98,29.87,24,4,25,0.00
2013-8-13,97.4,72.7,50.9,50.7,42.9,34.8,70,39,16,29.97,29.84,24,3,24,0.00
2013-8-14,102.0,77.9,52.3,50.0,42.2,28.9,71,33,8,29.95,29.80,18,3,18,0.00
2013-8-15,100.0,75.2,54.1,54.9,45.5,35.9,75,40,14,29.93,29.83,20,3,21,0.00
2013-8-16,98.0,74.5,55.7,59.2,47.6,38.9,70,42,18,29.95,29.86,24,3,25,0.00
2013-8-17,98.0,76.1,57.3,52.9,48.0,34.8,72,42,13,29.95,29.78,23,3,23,0.00
2013-8-18,97.9,75.7,57.6,57.3,50.2,37.5,80,46,17,29.87,29.73,21,3,21,0.00
2013-8-19,91.5,73.0,57.5,54.2,48.9,41.8,65,45,23,29.87,29.80,17,3,20,0.00
2013-8-20,92.3,68.8,52.4,54.0,48.1,40.0,83,52,17,29.89,29.81,22,3,22,0.00
2013-8-21,87.0,64.6,45.1,52.7,48.2,40.9,94,62,21,29.92,29.83,24,4,24,0.00
2013-8-22,89.2,65.8,46.7,53.2,48.9,43.6,93,60,22,29.95,29.83,18,2,18,0.00
2013-8-23,90.5,66.0,46.1,55.5,49.1,42.2,93,61,20,29.91,29.76,14,3,14,0.00
2013-8-24,94.0,70.5,50.8,53.8,47.5,41.1,85,50,17,29.87,29.75,24,3,24,0.00
2013-8-25,87.3,69.5,54.0,56.9,52.9,48.1,85,58,33,29.93,29.86,23,4,24,0.00
2013-8-26,93.0,67.9,49.5,58.4,50.6,40.6,92,60,18,29.98,29.83,18,2,18,0.00
2013-8-27,94.2,70.3,53.0,54.7,49.3,37.9,78,51,16,29.88,29.77,17,2,17,0.00
2013-8-28,94.7,70.7,53.0,54.4,48.4,31.6,83,51,12,29.92,29.83,19,2,19,0.00
2013-8-29,96.8,72.1,51.5,58.5,49.1,41.2,87,49,23,30.00,29.88,18,3,18,0.00
2013-8-30,100.0,79.1,61.0,57.0,52.5,46.1,77,44,20,29.99,29.85,21,3,22,0.00
2013-8-31,92.5,76.4,63.0,67.2,55.6,45.5,79,50,28,29.94,29.85,19,3,19,0.00
2013-9-1,87.3,75.8,65.0,68.3,63.7,59.8,87,67,49,29.90,29.83,20,3,20,0.00
2013-9-2,91.3,73.7,60.7,64.4,61.0,56.9,91,67,39,29.91,29.81,20,2,20,0.00
2013-9-3,90.2,73.7,60.4,59.7,53.7,42.1,82,54,27,29.94,29.84,18,3,18,0.00
2013-9-4,93.0,73.2,58.5,55.7,52.1,48.6,76,50,28,29.98,29.85,16,3,16,0.00
2013-9-5,93.9,72.8,56.8,55.0,52.2,48.9,82,52,23,29.97,29.83,12,3,12,0.00
2013-9-6,98.9,74.3,58.5,53.3,49.2,37.1,75,47,13,29.94,29.78,14,2,14,0.00
2013-9-7,92.2,62.3,50.3,50.9,46.9,29.4,81,61,11,29.88,29.83,15,1,15,0.00
2013-9-8,97.5,73.4,52.8,47.3,39.1,30.3,57,33,11,29.86,29.71,17,3,18,0.00
2013-9-9,99.3,73.1,54.0,47.6,40.7,35.1,53,34,13,29.79,29.67,24,3,24,0.00
2013-9-10,81.0,64.6,52.8,55.3,50.3,41.5,84,62,35,29.90,29.74,17,3,17,0.00
2013-9-11,83.3,62.1,47.8,57.6,50.6,45.3,96,70,34,30.00,29.90,17,2,17,0.00
2013-9-12,89.5,66.2,47.9,56.6,49.4,43.2,91,60,23,29.98,29.82,14,3,15,0.00
2013-9-13,96.7,72.5,50.8,57.4,49.5,42.6,85,51,17,29.89,29.67,16,3,16,0.00
2013-9-14,97.5,74.0,53.7,53.9,45.8,32.8,84,44,14,29.77,29.63,14,3,14,0.00
2013-9-15,92.0,70.2,55.3,53.6,47.6,41.3,83,50,22,29.81,29.72,15,3,16,0.00
2013-9-16,91.6,69.0,53.7,56.3,51.0,45.6,85,57,24,29.85,29.74,18,3,18,0.00
2013-9-17,83.6,65.0,49.2,51.9,46.9,38.9,90,57,21,29.87,29.75,18,4,20,0.00
2013-9-18,87.1,65.4,45.9,52.3,45.8,41.8,94,56,21,29.89,29.75,17,3,17,0.00
2013-9-19,94.5,67.3,45.0,45.7,40.9,32.8,83,45,14,29.85,29.71,15,3,15,0.00
2013-9-20,78.5,63.1,48.7,53.9,45.8,35.8,90,56,31,29.89,29.77,18,6,18,0.00
2013-9-21,70.8,61.0,53.3,59.2,53.9,49.4,89,78,55,29.90,29.83,20,4,20,0.00
2013-9-22,76.7,60.7,45.8,52.1,47.3,44.2,97,66,33,29.97,29.87,17,3,19,0.00
2013-9-23,86.5,67.8,49.9,51.4,47.3,43.1,89,53,22,29.99,29.86,18,3,18,0.00
2013-9-24,79.8,62.3,49.6,54.1,48.4,43.6,85,62,34,29.97,29.82,15,2,16,0.00
2013-9-25,74.7,59.7,45.6,47.1,42.3,33.5,89,57,23,29.91,29.74,21,4,21,0.00
2013-9-26,72.7,55.9,39.8,45.8,38.2,30.8,93,57,23,29.97,29.81,20,3,20,0.00
2013-9-27,80.3,58.7,36.8,39.1,32.4,26.3,82,44,14,30.09,29.97,15,2,16,0.00
2013-9-28,87.3,61.9,38.2,38.2,30.7,22.8,74,37,11,30.09,29.97,16,3,17,0.00
2013-9-29,89.5,64.6,41.2,44.6,32.8,23.9,61,34,13,30.11,29.97,18,3,19,0.00
2013-9-30,85.3,64.5,46.4,55.0,48.4,40.3,91,60,21,30.07,29.89,15,3,16,0.00
2013-10-1,82.1,64.9,52.7,57.2,51.9,42.0,94,66,36,29.98,29.84,13,3,13,0.00
2013-10-2,82.3,61.9,46.3,50.1,44.2,39.1,82,55,28,29.98,29.86,17,3,17,0.00
2013-10-3,78.5,58.6,39.4,42.9,35.3,20.4,88,48,15,30.00,29.85,15,3,17,0.00
2013-10-4,86.1,62.8,39.8,34.3,27.7,16.8,74,34,8,30.09,29.94,11,3,16,0.00
2013-10-5,88.8,63.9,38.8,34.3,24.8,8.9,65,30,6,30.18,30.07,21,3,21,0.00
2013-10-6,90.0,61.7,38.6,33.6,23.6,13.4,63,29,7,30.14,30.00,18,2,19,0.00
2013-10-7,84.2,60.5,42.7,43.5,27.8,19.9,48,31,15,30.01,29.88,17,2,17,0.00
2013-10-8,76.3,54.3,38.2,48.7,37.5,26.0,89,56,26,29.92,29.78,18,3,19,0.00
2013-10-9,57.7,51.6,44.9,47.9,45.2,41.7,91,79,60,29.81,29.67,22,4,22,0.01
2013-10-10,71.6,52.5,37.6,47.6,42.3,36.0,96,73,34,30.04,29.81,14,4,14,0.00
2013-10-11,75.8,53.3,38.5,48.2,42.5,36.3,96,72,31,30.09,29.96,16,2,16,0.00
2013-10-12,77.5,54.5,36.3,45.5,40.0,33.8,93,63,24,30.02,29.89,16,2,18,0.00
2013-10-13,73.4,53.6,35.8,48.2,40.2,31.8,88,63,31,30.07,29.94,15,2,15,0.00
2013-10-14,81.3,58.8,37.6,43.6,38.3,34.8,92,54,21,30.11,29.96,15,2,15,0.00
2013-10-15,83.3,60.2,37.9,40.8,35.9,32.1,82,48,19,30.03,29.90,15,2,15,0.00
2013-10-16,60.4,53.3,46.6,30.3,27.8,26.3,47,38,30,30.07,30.04,4,1,4,0.00
2013-10-17,83.0,58.5,37.1,35.3,30.1,25.5,68,39,14,30.10,29.93,15,2,15,0.00
2013-10-18,87.0,59.3,37.3,38.9,33.4,28.6,74,43,14,30.06,29.95,12,2,14,0.00
2013-10-19,89.2,69.3,46.3,38.7,33.7,22.6,60,30,11,30.08,29.96,17,3,17,0.00
2013-10-20,88.5,59.6,37.3,39.2,32.5,23.6,72,43,10,30.03,29.87,12,2,12,0.00
2013-10-21,86.0,58.1,36.4,42.6,35.0,27.1,80,48,12,30.00,29.87,12,2,13,0.00
2013-10-22,84.7,60.2,37.5,43.9,36.9,31.8,82,48,17,30.02,29.88,11,2,11,0.00
2013-10-23,78.8,57.4,40.0,48.9,41.0,33.7,87,58,28,29.96,29.85,12,2,12,0.00
2013-10-24,73.2,53.9,39.7,51.5,44.9,37.1,96,75,42,30.09,29.96,12,2,12,0.00
2013-10-25,84.3,56.9,36.2,47.6,39.2,33.3,95,60,17,30.18,30.03,11,2,11,0.00
2013-10-26,84.3,58.2,37.5,46.4,39.9,31.1,82,55,22,30.15,29.97,12,2,12,0.00
2013-10-27,75.0,54.0,38.5,47.6,41.8,34.7,88,67,30,30.03,29.81,26,4,26,0.00
2013-10-28,56.7,52.3,49.0,49.6,46.9,43.3,89,82,71,29.91,29.77,21,6,21,0.01
2013-10-29,63.5,52.6,41.5,49.8,45.8,38.7,94,79,53,30.05,29.91,19,3,19,0.00
2013-10-30,68.3,50.4,35.7,48.5,40.2,34.1,97,72,37,30.16,30.04,16,2,16,0.00
2013-10-31,74.0,54.7,38.5,45.2,40.3,34.6,92,62,32,30.18,30.05,15,2,15,0.00
2013-11-1,82.0,54.4,34.2,44.6,34.9,19.6,95,57,11,30.17,30.00,9,1,10,0.00
2013-11-2,79.3,54.1,34.4,45.8,32.9,24.0,87,50,17,30.05,29.89,17,2,17,0.00
2013-11-3,70.6,53.7,37.9,46.3,32.7,26.3,93,50,21,30.00,29.86,14,3,14,0.00
2013-11-4,65.7,50.2,33.4,33.2,27.7,24.3,76,45,22,30.07,29.87,14,2,14,0.00
2013-11-5,71.5,50.0,29.2,33.4,27.3,23.3,83,48,17,30.24,30.06,13,2,13,0.00
2013-11-6,78.5,51.9,31.3,31.8,24.8,16.8,79,42,10,30.28,30.16,14,2,14,0.00
2013-11-7,79.8,54.2,38.1,30.3,26.0,22.1,61,38,13,30.20,30.05,9,1,9,0.00
2013-11-8,80.3,53.3,32.4,34.5,29.3,23.4,73,45,16,30.10,29.93,8,1,12,0.00
2013-11-9,76.2,50.9,32.3,49.2,35.8,25.9,91,62,16,30.07,29.98,17,2,17,0.00
2013-11-10,72.2,50.1,33.8,46.8,39.4,29.1,96,72,21,30.13,30.07,17,2,17,0.00
2013-11-11,79.7,53.7,32.0,42.8,36.4,29.7,93,59,18,30.19,30.06,10,1,10,0.00
2013-11-12,76.1,58.5,49.3,44.7,40.2,35.9,66,52,27,30.27,30.14,10,2,13,0.00
2013-11-13,80.8,58.9,42.4,46.4,38.7,32.4,82,52,23,30.22,30.06,14,3,15,0.00
2013-11-14,77.0,55.0,34.3,44.5,38.0,29.6,85,57,29,30.10,29.85,13,2,14,0.00
2013-11-15,65.8,50.5,38.8,45.6,41.4,36.1,93,73,42,29.86,29.69,14,3,15,0.00
2013-11-16,65.0,46.6,32.7,45.7,38.6,30.6,94,76,42,29.98,29.80,17,2,17,0.00
2013-11-17,65.6,48.5,38.9,47.6,42.1,36.3,94,80,50,30.11,29.97,9,1,9,0.00
2013-11-18,66.3,48.1,35.2,48.4,40.7,33.4,95,77,48,30.18,30.08,15,2,16,0.00
2013-11-19,64.9,49.4,34.9,49.1,42.0,32.8,94,77,50,30.15,29.98,13,2,13,0.00
2013-11-20,62.2,55.8,51.0,57.4,52.5,45.6,95,89,79,30.01,29.85,9,2,9,0.05
2013-11-21,61.8,53.4,45.6,52.4,48.6,40.3,95,84,63,29.93,29.82,12,2,12,0.06
2013-11-22,60.8,49.8,41.8,43.5,40.4,37.3,91,72,45,30.01,29.91,15,2,15,0.00
2013-11-23,64.3,46.2,33.4,46.0,39.2,31.6,95,79,45,30.14,29.99,13,2,14,0.00
2013-11-24,66.1,46.6,31.6,45.2,36.9,30.0,96,73,36,30.27,30.14,11,2,11,0.00
2013-11-25,69.8,47.8,30.4,44.4,37.1,28.5,95,70,35,30.33,30.24,11,2,11,0.00
2013-11-26,67.5,49.5,33.7,45.1,39.5,31.1,94,71,42,30.27,30.07,10,1,10,0.00
2013-11-27,70.4,51.1,35.1,46.9,39.7,32.9,94,70,29,30.07,29.85,23,3,23,0.00
2013-11-28,66.3,52.8,42.4,45.2,40.7,36.7,91,67,34,30.09,29.90,10,1,10,0.00
2013-11-29,68.6,51.9,40.3,44.9,38.8,32.8,84,64,30,30.25,30.08,12,1,14,0.00
2013-11-30,73.7,50.4,31.4,40.6,35.1,28.9,93,62,23,30.30,30.16,12,2,12,0.00
2013-12-1,72.7,50.5,31.7,43.0,36.2,29.3,92,62,29,30.35,30.20,16,2,17,0.00
2013-12-2,76.6,53.4,35.1,41.7,36.9,31.0,90,58,23,30.24,29.96,12,2,12,0.00
2013-12-3,62.2,47.7,36.4,49.3,38.5,28.8,90,72,44,29.98,29.77,17,2,17,0.00
2013-12-4,53.1,37.8,24.4,32.8,22.0,14.7,93,59,25,30.08,29.91,10,2,13,0.00
2013-12-5,49.1,30.7,15.2,16.9,11.9,6.8,82,51,18,30.22,30.07,14,2,14,0.00
2013-12-6,52.1,33.0,14.3,33.9,19.6,7.5,90,61,26,30.27,30.12,11,2,11,0.01
2013-12-7,50.0,42.7,29.6,45.7,35.2,25.9,94,76,49,30.24,29.99,23,5,27,0.47
2013-12-8,45.6,32.7,23.5,31.6,25.9,21.5,93,78,49,30.30,30.19,16,2,16,0.01
2013-12-9,52.6,36.5,27.0,29.6,25.2,22.5,86,66,33,30.42,30.28,11,2,11,0.00
2013-12-10,58.4,36.3,20.6,26.6,22.3,16.5,87,61,24,30.42,30.19,11,2,11,0.00
2013-12-11,63.9,39.4,25.5,30.2,24.8,21.3,86,61,24,30.27,30.17,8,1,8,0.00
2013-12-12,67.2,40.1,22.6,31.5,24.5,19.3,90,60,21,30.30,30.18,8,1,9,0.00
2013-12-13,62.8,41.0,24.2,34.8,26.8,20.6,89,61,27,30.33,30.23,12,2,12,0.00
2013-12-14,64.5,41.8,24.6,31.7,27.4,20.4,86,60,28,30.40,30.29,9,2,9,0.00
2013-12-15,68.0,44.5,25.1,33.1,27.9,22.2,91,58,25,30.39,30.21,10,2,10,0.00
2013-12-16,71.3,47.5,31.3,35.0,30.5,26.3,83,56,24,30.25,30.12,8,1,8,0.00
2013-12-17,73.3,50.6,33.7,43.9,33.5,28.8,84,57,21,30.20,30.03,7,1,7,0.00
2013-12-18,66.8,51.3,44.8,46.5,39.9,32.3,89,67,33,30.03,29.84,13,2,13,0.00
2013-12-19,55.9,47.5,34.6,45.9,38.1,30.9,89,71,45,29.91,29.72,18,4,19,0.00
2013-12-20,57.5,39.8,24.4,33.6,25.3,20.4,94,62,27,30.04,29.90,13,2,13,0.00
2013-12-21,63.7,41.2,25.4,33.6,25.3,19.5,78,57,28,30.13,29.98,13,1,13,0.00
2013-12-22,66.4,43.0,26.1,36.7,30.3,22.8,89,65,30,30.34,30.13,8,1,8,0.00
2013-12-23,70.5,44.9,27.9,36.7,31.4,25.8,94,64,26,30.42,30.30,8,1,8,0.00
2013-12-24,72.3,51.3,33.5,37.0,33.0,27.1,85,54,24,30.34,30.17,16,3,16,0.00
2013-12-25,72.8,46.1,28.1,36.1,30.1,24.7,91,59,22,30.30,30.18,8,1,9,0.00
2013-12-26,75.5,46.3,25.8,34.7,27.2,19.3,88,55,12,30.29,30.14,10,1,10,0.00
2013-12-27,69.9,44.8,24.2,27.7,24.2,19.1,82,50,18,30.27,30.13,5,1,8,0.00
2013-12-28,68.6,48.4,28.8,34.2,27.4,21.1,74,46,25,30.14,29.99,15,2,15,0.00
2013-12-29,70.3,44.5,26.0,30.9,26.0,20.8,82,53,22,30.22,30.09,7,1,7,0.00
2013-12-30,73.1,43.7,27.3,24.8,19.1,13.4,71,44,11,30.29,30.20,13,1,14,0.00
2013-12-31,71.0,45.4,27.6,28.3,19.8,15.7,64,40,14,30.27,30.13,9,2,9,0.00
2014-1-1,68.8,45.6,27.0,33.0,25.9,19.1,74,49,24,30.23,30.10,9,1,9,0.00
2014-1-2,71.3,46.5,29.5,30.8,26.6,23.0,78,51,20,30.20,30.05,8,1,8,0.00